[[{"header":{"parameterUnit":"m.s-1","parameterCategory":2,"la1":30.2991,"la2":30.254,"lo1":-89.0895,"lo2":-89.0444,"dy":0.0017,"dx":0.0017,"nx":28,"ny":28,"refTime":"2024-04-01T09:00:00:Z","depth":"0","parameterNumber":2,"parameterNumberName":"U-component_of_CURRENTS"},"data":[0,0,0,0,0,0,0,0,0,0,0,0,0,0,0,0,0,0,0,0,0,0,0,0,0,0,0,0,0,0,0,0,0,0,0,0,0,0,0,0,0,0,0,0,0,0,0,0,0,0,0,0,0,0,0,0,0,0,-0.242,-0.242,0,-0.2422,-0.2422,-0.2422,-0.2399,-0.2398,-0.2398,-0.2398,-0.2375,-0.2375,-0.2375,0,0,0,0,0,0,0,0,0,0,0,0,0,-0.2392,-0.2392,-0.242,-0.242,-0.242,-0.2422,-0.2422,-0.2422,-0.2399,-0.2398,-0.2398,-0.2398,-0.2375,-0.2375,-0.2375,0,0,0,0,0,0,0,0,0,0,0,0,0,-0.2397,-0.2393,-0.242,-0.2411,-0.2411,-0.2422,-0.2422,-0.2422,-0.2399,-0.2398,-0.2398,-0.2397,-0.2376,-0.2375,-0.2375,-0.2383,0,0,-0.2374,-0.2373,0,0,0,0,0,0,0,0,-0.2397,-0.2398,-0.2412,-0.2412,-0.2412,-0.2412,-0.2404,-0.2409,-0.2399,-0.24,-0.2398,-0.2397,-0.2388,-0.2386,-0.2384,-0.2382,-0.2381,-0.2373,-0.2373,-0.2373,-0.2373,0,0,0,0,0,0,0,-0.2397,-0.2398,-0.2418,-0.2413,-0.2412,-0.2407,-0.2407,-0.2405,-0.2394,-0.24,-0.2399,-0.2405,-0.2387,-0.2384,-0.2383,-0.2381,-0.2374,-0.2373,-0.2373,-0.2373,-0.2367,-0.2367,0,0,0,0,0,0,-0.2404,-0.2398,-0.2418,-0.2418,-0.2406,-0.2408,-0.2408,-0.241,-0.2395,-0.2393,-0.2405,-0.2404,-0.2385,-0.2384,-0.2382,-0.2396,-0.2373,-0.2373,-0.2372,-0.2367,-0.2367,-0.2367,0,0,0,0,0,0,-0.2403,-0.2405,-0.2418,-0.241,-0.2412,-0.2409,-0.2412,-0.2411,-0.2408,-0.2399,-0.2396,-0.2404,-0.2385,-0.2383,-0.2379,-0.2395,-0.2373,-0.2372,-0.2367,-0.2367,-0.2367,-0.2421,0,0,0,0,0,0,-0.2402,-0.2405,-0.2404,-0.2411,-0.2413,-0.2431,-0.2413,-0.2411,-0.2413,-0.2411,-0.2398,-0.2395,-0.2384,-0.238,-0.2379,-0.2394,-0.2372,-0.2367,-0.2367,-0.2367,-0.2419,-0.2423,-0.2426,0,0,0,0,0,-0.2401,-0.2404,-0.2404,-0.2406,-0.2413,-0.2432,-0.2432,-0.2426,-0.2414,-0.2419,-0.2404,-0.2395,-0.238,-0.238,-0.2378,-0.2394,-0.2366,-0.2367,-0.2367,-0.2418,-0.2422,-0.2426,0,0,0,0,0,0,-0.2385,-0.2402,-0.2402,-0.2408,-0.2423,-0.2429,-0.2429,-0.2429,-0.2421,-0.2413,-0.2399,-0.2396,-0.24,-0.2385,-0.2385,-0.239,-0.2371,-0.2371,-0.241,-0.2414,-0.2417,-0.2404,-0.2372,0,0,0,0,0,-0.2384,-0.2392,-0.2411,-0.2414,-0.2421,-0.2426,-0.243,-0.2432,-0.243,-0.2425,-0.2417,-0.2404,-0.24,-0.2397,-0.2391,-0.2395,-0.2363,-0.2401,-0.2405,-0.2408,-0.2395,-0.2375,-0.2376,-0.2368,-0.2368,-0.2368,0,0,-0.2378,-0.2389,-0.2392,-0.2412,-0.2416,-0.2437,-0.2426,-0.2437,-0.2448,-0.2425,-0.2427,-0.2419,-0.2404,-0.2409,-0.2409,-0.2399,-0.2391,-0.2409,-0.2412,-0.2396,-0.2376,-0.2377,-0.2377,-0.2368,-0.2368,-0.2368,0,0,-0.2379,-0.2381,-0.2393,-0.2409,-0.2429,-0.2439,-0.2445,-0.2458,-0.2455,-0.2465,-0.2448,-0.2442,-0.2441,-0.2431,-0.2426,-0.2442,-0.2413,-0.2446,-0.2455,-0.2437,-0.2438,-0.2438,-0.2388,-0.2383,-0.2447,-0.2447,-0.2447,0,-0.2373,-0.2387,-0.2399,-0.2419,-0.243,-0.2443,-0.2461,-0.2469,-0.2478,-0.2475,-0.247,-0.2457,-0.2448,-0.2447,-0.2452,-0.2451,-0.2425,-0.2446,-0.2443,-0.2442,-0.2441,-0.239,-0.2384,-0.2449,-0.2449,-0.2449,-0.2449,0,-0.2387,-0.24,-0.2408,-0.2438,-0.2456,-0.2471,-0.2493,-0.2505,-0.2505,-0.2508,-0.2507,-0.2492,-0.248,-0.2484,-0.2474,-0.2469,-0.2447,-0.2454,-0.2435,-0.2446,-0.2391,-0.2383,-0.2453,-0.2452,-0.2452,-0.2451,0,0,-0.2357,-0.241,-0.2407,-0.2428,-0.2464,-0.2481,-0.2505,-0.2526,-0.2535,-0.2537,-0.2537,-0.253,-0.2516,-0.2507,-0.2496,-0.2479,-0.2453,-0.2466,-0.2464,-0.242,-0.239,-0.2305,-0.2289,-0.247,-0.2469,-0.2468,-0.2351,0,-0.2358,-0.2401,-0.2423,-0.2458,-0.2482,-0.2505,-0.2529,-0.255,-0.2558,-0.2564,-0.2545,-0.2543,-0.2528,-0.2524,-0.2506,-0.247,-0.2438,-0.2482,-0.2381,-0.2377,-0.2305,-0.2279,-0.2196,-0.2079,-0.2343,-0.2342,-0.2341,0,-0.2353,-0.2385,-0.2421,-0.2474,-0.2485,-0.2508,-0.2539,-0.2563,-0.2579,-0.2583,-0.2575,-0.2564,-0.2534,-0.2527,-0.2451,-0.2482,-0.2433,-0.2399,-0.2394,-0.2287,-0.2279,-0.2111,-0.2055,-0.2039,-0.233,-0.2331,-0.2332,0,-0.2317,-0.2375,-0.2403,-0.242,-0.2486,-0.2499,-0.2528,-0.2558,-0.2567,-0.2586,-0.2586,-0.2565,-0.2537,-0.249,-0.241,-0.2436,-0.2314,-0.2344,-0.2211,-0.2204,-0.2094,-0.2078,-0.201,-0.2279,-0.228,-0.228,-0.228,0,-0.2299,-0.2316,-0.239,-0.2402,-0.2426,-0.2484,-0.2501,-0.2529,-0.2561,-0.2559,-0.2582,-0.2555,-0.2529,-0.246,-0.2401,-0.226,-0.23,-0.2187,-0.2165,-0.2108,-0.2095,-0.2045,-0.2073,-0.2276,-0.2277,-0.2277,-0.2278,0,-0.2237,-0.2291,-0.2322,-0.2391,-0.2406,-0.2418,-0.2468,-0.2485,-0.2529,-0.2525,-0.2528,-0.2528,-0.2436,-0.2379,-0.2283,-0.2224,-0.2073,-0.2063,-0.1977,-0.1947,-0.1818,-0.1852,-0.1738,-0.1693,-0.19,-0.1897,-0.1894,0,-0.2206,-0.2219,-0.2283,-0.2292,-0.2313,-0.2347,-0.2367,-0.2441,-0.2459,-0.2485,-0.2471,-0.2411,-0.2329,-0.2153,-0.2044,-0.1903,-0.1931,-0.1764,-0.1799,-0.1771,-0.1794,-0.1833,-0.1808,-0.167,-0.1666,-0.1663,-0.166,0,-0.2124,-0.2148,-0.2165,-0.2194,-0.2216,-0.2239,-0.2277,-0.2288,-0.2367,-0.236,-0.2312,-0.225,-0.2109,-0.1921,-0.1772,-0.1692,-0.1728,-0.169,-0.1691,-0.1618,-0.1625,-0.1584,-0.1779,-0.1631,-0.1634,-0.1636,-0.1638,-0.1639,-0.2031,-0.2026,-0.2053,-0.2061,-0.2091,-0.2096,-0.2076,-0.2123,-0.211,-0.207,-0.2097,-0.1955,-0.185,-0.1614,-0.1535,-0.1396,-0.1477,-0.1367,-0.1409,-0.145,-0.1409,-0.1516,-0.1335,-0.1336,-0.1337,-0.1338,-0.1339,0,-0.1908,-0.1915,-0.192,-0.1926,-0.1905,-0.1967,-0.1984,-0.1934,-0.1868,-0.1838,-0.1756,-0.1582,-0.1428,-0.1356,-0.1218,-0.1146,-0.1152,-0.1135,-0.1191,-0.1179,-0.128,-0.1272,-0.1032,-0.1032,-0.1032,-0.1032,-0.1033,-0.1033,-0.1839,-0.1797,-0.1803,-0.1719,-0.1729,-0.1663,-0.1643,-0.1573,-0.1517,-0.1331,-0.1224,-0.1157,-0.1142,-0.1196,-0.1103,-0.1051,-0.1055,-0.101,-0.1053,-0.1158,-0.1185,-0.1211,-0.1209,-0.096,-0.096,-0.091,-0.0909,-0.0909]},{"header":{"parameterUnit":"m.s-1","parameterCategory":2,"la1":30.2991,"la2":30.254,"lo1":-89.0895,"lo2":-89.0444,"dy":0.0017,"dx":0.0017,"nx":28,"ny":28,"refTime":"2024-04-01T09:00:00:Z","depth":"0","parameterNumber":3,"parameterNumberName":"V-component_of_CURRENTS"},"data":[0,0,0,0,0,0,0,0,0,0,0,0,0,0,0,0,0,0,0,0,0,0,0,0,0,0,0,0,0,0,0,0,0,0,0,0,0,0,0,0,0,0,0,0,0,0,0,0,0,0,0,0,0,0,0,0,0,0,-0.0319,-0.0318,0,-0.0263,-0.0262,-0.0262,-0.0222,-0.0222,-0.0222,-0.0222,-0.0115,-0.0113,-0.011,0,0,0,0,0,0,0,0,0,0,0,0,0,-0.0347,-0.0347,-0.0319,-0.0318,-0.0318,-0.0263,-0.0262,-0.0261,-0.0222,-0.0222,-0.0222,-0.0222,-0.0116,-0.0113,-0.011,0,0,0,0,0,0,0,0,0,0,0,0,0,-0.0317,-0.0347,-0.0319,-0.0292,-0.0289,-0.0263,-0.0262,-0.0261,-0.0222,-0.0222,-0.0222,-0.0221,-0.0117,-0.0113,-0.0109,-0.0092,0,0,-0.0097,-0.0096,0,0,0,0,0,0,0,0,-0.0319,-0.0316,-0.0297,-0.0294,-0.0291,-0.025,-0.0233,-0.0202,-0.0223,-0.0247,-0.0222,-0.0221,-0.0156,-0.0149,-0.0139,-0.0087,-0.0083,-0.0097,-0.0095,-0.0093,-0.0092,0,0,0,0,0,0,0,-0.0321,-0.0318,-0.0296,-0.0296,-0.0292,-0.0268,-0.0263,-0.0227,-0.0203,-0.0245,-0.0242,-0.0237,-0.0154,-0.0143,-0.0136,-0.0081,-0.0097,-0.0094,-0.0091,-0.009,0.0005,0.0005,0,0,0,0,0,0,-0.0332,-0.032,-0.0298,-0.0294,-0.0305,-0.0268,-0.0263,-0.0263,-0.0204,-0.0196,-0.0237,-0.0236,-0.015,-0.0141,-0.0132,-0.0099,-0.0093,-0.0089,-0.0087,0.0005,0.0005,0.0005,0,0,0,0,0,0,-0.0333,-0.0331,-0.03,-0.0306,-0.0301,-0.0268,-0.0268,-0.0262,-0.0251,-0.0199,-0.0189,-0.0233,-0.0149,-0.0138,-0.0101,-0.0094,-0.0087,-0.0084,0.0005,0.0005,0.0005,-0.0038,0,0,0,0,0,0,-0.0334,-0.0332,-0.0337,-0.0307,-0.0301,-0.0292,-0.0268,-0.0261,-0.0248,-0.0245,-0.0192,-0.0182,-0.0148,-0.0107,-0.0097,-0.0089,-0.0081,0.0005,0.0005,0.0005,-0.0036,-0.0039,-0.0041,0,0,0,0,0,-0.0336,-0.0349,-0.0338,-0.0335,-0.0309,-0.0292,-0.0287,-0.0261,-0.0249,-0.0249,-0.021,-0.0183,-0.0098,-0.0104,-0.0092,-0.0083,0.0004,0.0005,0.0005,-0.0035,-0.0038,-0.0041,0,0,0,0,0,0,-0.0365,-0.0345,-0.0333,-0.0339,-0.0319,-0.0286,-0.0285,-0.0265,-0.0236,-0.0231,-0.0181,-0.0168,-0.0134,-0.0104,-0.0112,-0.0055,-0.0042,-0.004,-0.0077,-0.0079,-0.0082,-0.0092,-0.0078,0,0,0,0,0,-0.0374,-0.0378,-0.0351,-0.0357,-0.035,-0.0317,-0.0308,-0.029,-0.0259,-0.0246,-0.0208,-0.0165,-0.0124,-0.01,-0.0064,-0.0032,0.001,-0.0018,-0.002,-0.0022,-0.0023,0.0044,0.0048,0.0007,0.0007,0.0007,0,0,-0.0386,-0.0377,-0.0378,-0.0363,-0.0346,-0.0342,-0.0311,-0.0302,-0.0293,-0.0238,-0.0216,-0.0174,-0.0119,-0.0084,-0.0065,-0.0057,0.0012,-0.0022,-0.0024,-0.0024,0.0045,0.0049,0.0052,0.0007,0.0007,0.0007,0,0,-0.0418,-0.0405,-0.0421,-0.0409,-0.039,-0.0365,-0.0365,-0.0333,-0.0313,-0.0287,-0.0242,-0.0195,-0.0143,-0.0095,-0.0064,-0.0057,-0.0006,-0.0048,-0.0061,0.0003,0.0007,0.0011,0.0071,0.008,-0.0045,-0.0045,-0.0045,0,-0.0435,-0.0449,-0.0422,-0.0433,-0.0428,-0.0379,-0.0391,-0.0362,-0.0321,-0.0298,-0.0288,-0.019,-0.0145,-0.0083,-0.0082,-0.006,-0.002,-0.0057,0.0,0.0005,0.001,0.007,0.0082,-0.0047,-0.0046,-0.0046,-0.0046,0,-0.0478,-0.0486,-0.0495,-0.049,-0.0479,-0.0481,-0.044,-0.0417,-0.0384,-0.0346,-0.0287,-0.0221,-0.016,-0.0137,-0.0106,-0.0047,-0.0028,-0.0014,0.0005,0.0012,0.0075,0.0087,-0.005,-0.0049,-0.0048,-0.0048,0,0,-0.0522,-0.0526,-0.0529,-0.0537,-0.0511,-0.0507,-0.0484,-0.0443,-0.0417,-0.0365,-0.0323,-0.0247,-0.0202,-0.0164,-0.0111,-0.0053,0.0019,-0.0025,-0.002,0.0031,0.0161,0.0191,0.0208,0.0041,0.0043,0.0045,0.0191,0,-0.0564,-0.0605,-0.0587,-0.0608,-0.0621,-0.057,-0.0553,-0.0507,-0.0448,-0.0393,-0.0305,-0.0249,-0.0213,-0.0178,-0.0115,-0.0012,0.0049,-0.0023,0.015,0.0155,0.0179,0.0222,0.0252,0.0386,0.0203,0.0206,0.0207,0,-0.0613,-0.0632,-0.0672,-0.0667,-0.0667,-0.0665,-0.0616,-0.0591,-0.0492,-0.0446,-0.0364,-0.0292,-0.0189,-0.0168,0.001,-0.0038,0.0053,0.0129,0.0137,0.0189,0.0209,0.0352,0.0417,0.0525,0.0227,0.0225,0.0224,0,-0.0667,-0.0687,-0.0721,-0.0724,-0.071,-0.0706,-0.0683,-0.0607,-0.0573,-0.0468,-0.0423,-0.03,-0.0219,-0.01,0.0057,0.0038,0.0253,0.025,0.0364,0.0367,0.0439,0.0445,0.0628,0.0371,0.037,0.037,0.037,0,-0.0723,-0.0746,-0.075,-0.0772,-0.0795,-0.0759,-0.0747,-0.0701,-0.0617,-0.0558,-0.0452,-0.0366,-0.0198,-0.0054,0.0065,0.0263,0.0266,0.0376,0.0414,0.0425,0.0427,0.0561,0.0589,0.0375,0.0374,0.0373,0.0372,0,-0.0779,-0.0784,-0.0821,-0.0824,-0.0826,-0.0838,-0.0803,-0.078,-0.0694,-0.0608,-0.0575,-0.0395,-0.0196,-0.0029,0.0196,0.029,0.0537,0.0523,0.0521,0.0555,0.074,0.0763,0.0964,0.104,0.0673,0.0675,0.0676,0,-0.0813,-0.0841,-0.0873,-0.0896,-0.09,-0.0905,-0.0903,-0.0831,-0.0785,-0.061,-0.0563,-0.0356,-0.0173,0.0157,0.0356,0.058,0.0645,0.0718,0.0684,0.0774,0.0828,0.0828,0.0876,0.077,0.0772,0.0773,0.0775,0,-0.0869,-0.088,-0.0912,-0.0967,-0.0983,-0.0991,-0.0966,-0.0942,-0.0821,-0.0706,-0.05,-0.0337,-0.0007,0.029,0.0553,0.0671,0.0795,0.0759,0.0869,0.0937,0.0935,0.1017,0.064,0.079,0.0789,0.0787,0.0787,0.0786,-0.09,-0.0941,-0.0983,-0.1027,-0.1049,-0.1053,-0.102,-0.0935,-0.0826,-0.0566,-0.0464,-0.0117,0.0223,0.062,0.0751,0.1003,0.0953,0.1068,0.1095,0.1093,0.1148,0.0795,0.0967,0.0967,0.0966,0.0966,0.0966,0,-0.0935,-0.0981,-0.1037,-0.1079,-0.1103,-0.1101,-0.1036,-0.0922,-0.0734,-0.0456,-0.0209,0.0265,0.0595,0.0897,0.1207,0.1332,0.1351,0.1386,0.1404,0.1445,0.1167,0.1151,0.135,0.135,0.135,0.135,0.135,0.1349,-0.0954,-0.1019,-0.1052,-0.1104,-0.1129,-0.1088,-0.1031,-0.0786,-0.0538,-0.005,0.0329,0.0583,0.0918,0.1328,0.1609,0.1627,0.1739,0.171,0.1782,0.1588,0.156,0.1533,0.1528,0.1803,0.1803,0.2055,0.2057,0.2059]}],[{"header":{"parameterUnit":"m.s-1","parameterCategory":2,"la1":30.2991,"la2":30.254,"lo1":-89.0895,"lo2":-89.0444,"dy":0.0017,"dx":0.0017,"nx":28,"ny":28,"refTime":"2024-04-01T09:00:00:Z","depth":"2","parameterNumber":2,"parameterNumberName":"U-component_of_CURRENTS"},"data":[0,0,0,0,0,0,0,0,0,0,0,0,0,0,0,0,0,0,0,0,0,0,0,0,0,0,0,0,0,0,0,0,0,0,0,0,0,0,0,0,0,0,0,0,0,0,0,0,0,0,0,0,0,0,0,0,0,0,-0.2175,-0.2175,0,-0.2182,-0.2182,-0.2182,-0.2169,-0.2168,-0.2168,-0.2168,-0.2153,-0.2153,-0.2153,0,0,0,0,0,0,0,0,0,0,0,0,0,-0.2139,-0.2139,-0.2175,-0.2175,-0.2175,-0.2183,-0.2182,-0.2182,-0.2169,-0.2168,-0.2168,-0.2168,-0.2153,-0.2153,-0.2153,0,0,0,0,0,0,0,0,0,0,0,0,0,-0.2148,-0.2139,-0.2175,-0.2172,-0.2172,-0.2183,-0.2182,-0.2182,-0.2169,-0.2168,-0.2168,-0.2168,-0.2153,-0.2153,-0.2153,-0.2157,0,0,-0.2152,-0.2152,0,0,0,0,0,0,0,0,-0.2148,-0.2149,-0.2172,-0.2172,-0.2172,-0.2177,-0.2164,-0.2173,-0.2169,-0.2167,-0.2168,-0.2168,-0.2161,-0.216,-0.2158,-0.2156,-0.2155,-0.2152,-0.2151,-0.2151,-0.2151,0,0,0,0,0,0,0,-0.2147,-0.2149,-0.2175,-0.2172,-0.2172,-0.2167,-0.2168,-0.2166,-0.2163,-0.2167,-0.2167,-0.2172,-0.216,-0.2159,-0.2158,-0.2155,-0.2152,-0.2151,-0.2151,-0.2151,-0.2149,-0.2149,0,0,0,0,0,0,-0.2153,-0.2148,-0.2175,-0.2175,-0.2162,-0.2168,-0.2169,-0.2173,-0.2163,-0.2163,-0.2172,-0.2172,-0.2159,-0.2158,-0.2157,-0.2176,-0.2151,-0.2151,-0.2151,-0.2149,-0.2149,-0.2149,0,0,0,0,0,0,-0.2152,-0.2155,-0.2174,-0.2164,-0.2167,-0.2169,-0.2174,-0.2174,-0.2176,-0.2168,-0.2166,-0.2176,-0.2159,-0.2158,-0.2157,-0.2175,-0.2151,-0.2151,-0.2148,-0.2149,-0.2149,-0.2204,0,0,0,0,0,0,-0.2151,-0.2155,-0.2157,-0.2165,-0.2168,-0.2189,-0.2175,-0.2174,-0.2181,-0.218,-0.2171,-0.2169,-0.2159,-0.2158,-0.2157,-0.2174,-0.215,-0.2148,-0.2148,-0.2149,-0.2202,-0.2207,-0.221,0,0,0,0,0,-0.215,-0.2156,-0.2157,-0.216,-0.2172,-0.219,-0.2191,-0.219,-0.2182,-0.2189,-0.2177,-0.217,-0.2159,-0.2158,-0.2157,-0.2174,-0.2148,-0.2148,-0.2149,-0.2201,-0.2206,-0.221,0,0,0,0,0,0,-0.2137,-0.2155,-0.2157,-0.2167,-0.2182,-0.2189,-0.2192,-0.2195,-0.2191,-0.2186,-0.2174,-0.2172,-0.2178,-0.2164,-0.2164,-0.2171,-0.2151,-0.2151,-0.2191,-0.2196,-0.2199,-0.2186,-0.215,0,0,0,0,0,-0.2137,-0.2147,-0.2166,-0.2173,-0.2181,-0.2188,-0.2194,-0.2198,-0.2199,-0.2197,-0.2192,-0.2181,-0.2178,-0.2177,-0.2171,-0.2178,-0.2146,-0.2185,-0.2189,-0.2192,-0.2179,-0.2161,-0.2162,-0.215,-0.215,-0.215,0,0,-0.2134,-0.2145,-0.215,-0.2171,-0.2178,-0.2198,-0.219,-0.2204,-0.2217,-0.2196,-0.2203,-0.2197,-0.2182,-0.219,-0.2191,-0.2181,-0.2177,-0.2193,-0.2196,-0.2181,-0.2161,-0.2162,-0.2164,-0.215,-0.215,-0.215,0,0,-0.2137,-0.2143,-0.2156,-0.2172,-0.2194,-0.2204,-0.2212,-0.2227,-0.2227,-0.224,-0.2225,-0.2222,-0.2224,-0.2213,-0.2208,-0.2226,-0.2199,-0.2232,-0.2243,-0.2226,-0.2227,-0.2227,-0.2183,-0.2179,-0.2234,-0.2234,-0.2234,0,-0.2134,-0.215,-0.2163,-0.2183,-0.2195,-0.2209,-0.2228,-0.2238,-0.225,-0.225,-0.2247,-0.2239,-0.223,-0.223,-0.2237,-0.2235,-0.2213,-0.2233,-0.2232,-0.2232,-0.2231,-0.2185,-0.218,-0.2236,-0.2236,-0.2236,-0.2236,0,-0.2149,-0.2164,-0.2173,-0.2204,-0.2221,-0.2238,-0.2261,-0.2275,-0.228,-0.2284,-0.2287,-0.2273,-0.2264,-0.2269,-0.226,-0.2257,-0.2238,-0.2242,-0.2224,-0.2236,-0.2186,-0.218,-0.224,-0.2239,-0.2239,-0.2238,0,0,-0.2125,-0.2176,-0.2175,-0.2195,-0.2231,-0.2248,-0.2274,-0.2296,-0.2307,-0.2314,-0.2317,-0.2312,-0.2301,-0.2292,-0.2283,-0.2268,-0.2248,-0.2258,-0.2255,-0.2217,-0.2192,-0.2111,-0.2096,-0.2263,-0.2263,-0.2262,-0.2157,0,-0.2128,-0.2169,-0.2191,-0.2226,-0.2248,-0.2273,-0.2297,-0.2319,-0.233,-0.2339,-0.2324,-0.2324,-0.2313,-0.2311,-0.2296,-0.2262,-0.2234,-0.2274,-0.2181,-0.2177,-0.2108,-0.2087,-0.1962,-0.1852,-0.2151,-0.215,-0.2149,0,-0.2125,-0.2155,-0.2191,-0.2241,-0.2251,-0.2275,-0.2309,-0.2332,-0.2351,-0.2358,-0.2354,-0.2346,-0.2321,-0.2315,-0.2246,-0.2276,-0.2232,-0.2201,-0.2197,-0.2093,-0.2084,-0.1888,-0.1828,-0.2138,-0.2138,-0.2139,-0.214,0,-0.2092,-0.2148,-0.2176,-0.2192,-0.2254,-0.2269,-0.2299,-0.2331,-0.234,-0.2363,-0.2364,-0.2348,-0.2324,-0.2282,-0.2211,-0.2235,-0.2125,-0.215,-0.2027,-0.202,-0.1876,-0.1857,-0.2092,-0.2093,-0.2093,-0.2093,-0.2093,0,-0.2076,-0.2094,-0.2165,-0.2176,-0.22,-0.2257,-0.2277,-0.2305,-0.2337,-0.2335,-0.2363,-0.2338,-0.2318,-0.2256,-0.2204,-0.2074,-0.2112,-0.2005,-0.1984,-0.189,-0.1874,-0.2098,-0.21,-0.2089,-0.209,-0.2091,-0.2091,0,-0.202,-0.2071,-0.2101,-0.2168,-0.2182,-0.2197,-0.2247,-0.2263,-0.2309,-0.2305,-0.2309,-0.2313,-0.2232,-0.2183,-0.2096,-0.2041,-0.1947,-0.1893,-0.1767,-0.1733,-0.1856,-0.1862,-0.1747,-0.1743,-0.174,-0.1737,-0.1735,0,-0.1992,-0.2005,-0.2066,-0.2075,-0.2098,-0.2134,-0.2152,-0.2224,-0.2238,-0.2267,-0.2249,-0.2202,-0.2125,-0.1967,-0.1866,-0.1738,-0.1823,-0.1565,-0.1588,-0.1827,-0.1819,-0.183,-0.1841,-0.1414,-0.1409,-0.1405,-0.1402,0,-0.1916,-0.194,-0.1957,-0.1984,-0.2006,-0.2026,-0.2061,-0.2067,-0.2141,-0.2136,-0.209,-0.2035,-0.1911,-0.1713,-0.1579,-0.1502,-0.1582,-0.1482,-0.1749,-0.153,-0.1507,-0.1502,-0.1524,-0.1368,-0.1371,-0.1374,-0.1376,-0.1377,-0.1832,-0.1827,-0.1852,-0.186,-0.1889,-0.1885,-0.1852,-0.1899,-0.188,-0.1831,-0.1873,-0.1725,-0.1691,-0.1387,-0.1286,-0.1209,-0.1324,-0.1276,-0.129,-0.1308,-0.1298,-0.1271,-0.1084,-0.1085,-0.1087,-0.1088,-0.1089,0,-0.1719,-0.1723,-0.1726,-0.1726,-0.17,-0.1759,-0.1758,-0.1687,-0.1613,-0.1604,-0.1528,-0.1281,-0.1158,-0.1117,-0.0941,-0.0909,-0.093,-0.0877,-0.0916,-0.0949,-0.0979,-0.0956,-0.0649,-0.0647,-0.0646,-0.0645,0,0,-0.1655,-0.1612,-0.1612,-0.152,-0.1523,-0.1422,-0.1385,-0.1296,-0.1246,-0.1101,-0.1016,-0.1077,-0.108,-0.0857,-0.0817,-0.0703,-0.0824,-0.0667,-0.1021,-0.11,-0.1129,-0.1206,-0.1206,0,0,0,0,0]},{"header":{"parameterUnit":"m.s-1","parameterCategory":2,"la1":30.2991,"la2":30.254,"lo1":-89.0895,"lo2":-89.0444,"dy":0.0017,"dx":0.0017,"nx":28,"ny":28,"refTime":"2024-04-01T09:00:00:Z","depth":"2","parameterNumber":3,"parameterNumberName":"V-component_of_CURRENTS"},"data":[0,0,0,0,0,0,0,0,0,0,0,0,0,0,0,0,0,0,0,0,0,0,0,0,0,0,0,0,0,0,0,0,0,0,0,0,0,0,0,0,0,0,0,0,0,0,0,0,0,0,0,0,0,0,0,0,0,0,-0.0408,-0.0407,0,-0.0355,-0.0355,-0.0354,-0.0317,-0.0317,-0.0317,-0.0316,-0.0221,-0.0219,-0.0216,0,0,0,0,0,0,0,0,0,0,0,0,0,-0.044,-0.044,-0.0408,-0.0407,-0.0407,-0.0355,-0.0355,-0.0354,-0.0317,-0.0317,-0.0317,-0.0316,-0.0222,-0.0219,-0.0216,0,0,0,0,0,0,0,0,0,0,0,0,0,-0.041,-0.044,-0.0408,-0.0383,-0.038,-0.0356,-0.0355,-0.0354,-0.0317,-0.0317,-0.0316,-0.0316,-0.0223,-0.0219,-0.0216,-0.0201,0,0,-0.0205,-0.0204,0,0,0,0,0,0,0,0,-0.0412,-0.0409,-0.0387,-0.0384,-0.0381,-0.0343,-0.0331,-0.0301,-0.0317,-0.034,-0.0316,-0.0316,-0.0258,-0.0252,-0.0243,-0.0197,-0.0193,-0.0205,-0.0203,-0.0201,-0.02,0,0,0,0,0,0,0,-0.0414,-0.0411,-0.0387,-0.0386,-0.0383,-0.0361,-0.0357,-0.0325,-0.0301,-0.0338,-0.0336,-0.0331,-0.0256,-0.0246,-0.024,-0.0191,-0.0205,-0.0202,-0.02,-0.0198,-0.0118,-0.0118,0,0,0,0,0,0,-0.0424,-0.0413,-0.0388,-0.0385,-0.0397,-0.0361,-0.0356,-0.0355,-0.0302,-0.0294,-0.0331,-0.0329,-0.0252,-0.0244,-0.0236,-0.0206,-0.0201,-0.0198,-0.0196,-0.0118,-0.0118,-0.0117,0,0,0,0,0,0,-0.0425,-0.0422,-0.039,-0.0398,-0.0392,-0.0361,-0.036,-0.0354,-0.0343,-0.0297,-0.0288,-0.0326,-0.0252,-0.0241,-0.021,-0.0202,-0.0196,-0.0193,-0.0118,-0.0118,-0.0118,-0.0152,0,0,0,0,0,0,-0.0426,-0.0423,-0.0427,-0.0399,-0.0392,-0.0382,-0.036,-0.0354,-0.0341,-0.0338,-0.029,-0.0281,-0.0251,-0.0215,-0.0206,-0.0197,-0.019,-0.0118,-0.0118,-0.0118,-0.0151,-0.0153,-0.0154,0,0,0,0,0,-0.0428,-0.0438,-0.0428,-0.0425,-0.0399,-0.0383,-0.0377,-0.0353,-0.0341,-0.0341,-0.0306,-0.0282,-0.0208,-0.0212,-0.0202,-0.0192,-0.0118,-0.0118,-0.0118,-0.015,-0.0152,-0.0154,0,0,0,0,0,0,-0.0454,-0.0434,-0.0423,-0.0426,-0.0408,-0.0377,-0.0375,-0.0357,-0.033,-0.0326,-0.0281,-0.027,-0.024,-0.0213,-0.0219,-0.0169,-0.0159,-0.0157,-0.0187,-0.0189,-0.0191,-0.0199,-0.0188,0,0,0,0,0,-0.0462,-0.0465,-0.0439,-0.0442,-0.0435,-0.0405,-0.0396,-0.0379,-0.0351,-0.034,-0.0305,-0.0267,-0.0231,-0.0209,-0.0179,-0.015,-0.0113,-0.0137,-0.0139,-0.0141,-0.0141,-0.0082,-0.0078,-0.0117,-0.0117,-0.0117,0,0,-0.0473,-0.0463,-0.0463,-0.0448,-0.0432,-0.0427,-0.0399,-0.0389,-0.038,-0.0333,-0.0312,-0.0275,-0.0227,-0.0197,-0.018,-0.0172,-0.0111,-0.0141,-0.0143,-0.0141,-0.0081,-0.0077,-0.0074,-0.0117,-0.0117,-0.0117,0,0,-0.0499,-0.0487,-0.0499,-0.0488,-0.047,-0.0447,-0.0447,-0.0417,-0.0399,-0.0375,-0.0336,-0.0294,-0.0249,-0.0205,-0.0178,-0.0172,-0.0127,-0.0165,-0.0174,-0.0117,-0.0113,-0.0109,-0.0058,-0.0049,-0.0161,-0.0161,-0.0162,0,-0.0513,-0.0523,-0.0499,-0.0508,-0.0503,-0.0459,-0.0468,-0.0442,-0.0405,-0.0384,-0.0376,-0.029,-0.025,-0.0194,-0.0192,-0.0174,-0.014,-0.017,-0.0119,-0.0115,-0.011,-0.0058,-0.0048,-0.0163,-0.0163,-0.0163,-0.0163,0,-0.0549,-0.0555,-0.0561,-0.0556,-0.0545,-0.0547,-0.0509,-0.0489,-0.046,-0.0425,-0.0373,-0.0315,-0.0261,-0.024,-0.0213,-0.0159,-0.0144,-0.0132,-0.0114,-0.0108,-0.0053,-0.0042,-0.0165,-0.0165,-0.0164,-0.0164,0,0,-0.0585,-0.0587,-0.059,-0.0597,-0.0573,-0.057,-0.0548,-0.0511,-0.0489,-0.0441,-0.0405,-0.0335,-0.0295,-0.0262,-0.0215,-0.0161,-0.0096,-0.0138,-0.0134,-0.0088,0.0028,0.0052,0.0067,-0.0077,-0.0076,-0.0074,0.0053,0,-0.062,-0.0655,-0.0638,-0.0657,-0.0669,-0.0624,-0.0609,-0.0567,-0.0516,-0.0469,-0.0389,-0.034,-0.0305,-0.0275,-0.0216,-0.0126,-0.0069,-0.0132,0.0017,0.0022,0.0041,0.008,0.0051,0.0163,0.0065,0.0067,0.0068,0,-0.0661,-0.0678,-0.0713,-0.0711,-0.0711,-0.0709,-0.0669,-0.0646,-0.0559,-0.0519,-0.0445,-0.0382,-0.0287,-0.0266,-0.0106,-0.0149,-0.0067,0.0002,0.0009,0.0051,0.0066,0.0142,0.0188,0.0087,0.0086,0.0084,0.0083,0,-0.071,-0.0727,-0.0758,-0.0761,-0.075,-0.0748,-0.0729,-0.0661,-0.0634,-0.054,-0.0504,-0.0391,-0.0322,-0.0211,-0.0069,-0.0084,0.0106,0.0105,0.0207,0.0209,0.0225,0.0226,0.0217,0.0216,0.0216,0.0216,0.0215,0,-0.0759,-0.0781,-0.0785,-0.0806,-0.083,-0.0797,-0.0792,-0.0751,-0.0679,-0.0632,-0.0533,-0.0464,-0.0305,-0.0177,-0.0065,0.0113,0.0115,0.0218,0.025,0.0212,0.021,0.0171,0.0164,0.0221,0.0219,0.0219,0.0218,0,-0.081,-0.0814,-0.085,-0.0856,-0.0858,-0.0873,-0.0847,-0.0831,-0.0755,-0.0687,-0.0658,-0.0501,-0.0324,-0.0166,0.0039,0.0128,0.0283,0.0342,0.0283,0.0306,0.0345,0.0334,0.0471,0.0473,0.0475,0.0476,0.0478,0,-0.0841,-0.0867,-0.09,-0.0924,-0.093,-0.0939,-0.0942,-0.088,-0.0846,-0.0699,-0.0664,-0.0481,-0.0325,-0.0023,0.0163,0.0374,0.0356,0.0451,0.0419,0.0357,0.0375,0.0361,0.0349,0.0429,0.043,0.0431,0.0431,0,-0.0894,-0.0906,-0.0937,-0.0994,-0.1014,-0.1028,-0.1014,-0.0999,-0.0896,-0.0807,-0.064,-0.0499,-0.0199,0.0048,0.03,0.0404,0.0412,0.047,0.0446,0.036,0.0326,0.034,0.0328,0.0436,0.0436,0.0435,0.0435,0.0435,-0.0926,-0.0966,-0.1009,-0.1055,-0.1082,-0.1096,-0.109,-0.1031,-0.0953,-0.0782,-0.0637,-0.0392,-0.0167,0.0213,0.0382,0.0514,0.051,0.0529,0.0524,0.0519,0.0482,0.0452,0.058,0.058,0.058,0.058,0.058,0,-0.0964,-0.1009,-0.1065,-0.1115,-0.1148,-0.1147,-0.112,-0.1077,-0.0959,-0.0769,-0.0568,-0.0291,-0.0001,0.0213,0.0445,0.0588,0.0555,0.0585,0.0519,0.0513,0.0508,0.0467,0.0563,0.0564,0.0564,0.0564,0,0,-0.0985,-0.105,-0.1082,-0.1151,-0.1183,-0.1194,-0.1171,-0.1072,-0.0931,-0.0724,-0.0521,-0.0259,0.0016,0.0177,0.0351,0.0466,0.0441,0.046,0.0458,0.0352,0.0345,0.0461,0.0391,0,0,0,0,0]}],[{"header":{"parameterUnit":"m.s-1","parameterCategory":2,"la1":30.2991,"la2":30.254,"lo1":-89.0895,"lo2":-89.0444,"dy":0.0017,"dx":0.0017,"nx":28,"ny":28,"refTime":"2024-04-01T09:00:00:Z","depth":"4","parameterNumber":2,"parameterNumberName":"U-component_of_CURRENTS"},"data":[0,0,0,0,0,0,0,0,0,0,0,0,0,0,0,0,0,0,0,0,0,0,0,0,0,0,0,0,0,0,0,0,0,0,0,0,0,0,0,0,0,0,0,0,0,0,0,0,0,0,0,0,0,0,0,0,0,0,-0.1539,-0.154,0,-0.1589,-0.1589,-0.1589,-0.1626,-0.1627,-0.1627,-0.1628,-0.1674,-0.1675,-0.1675,0,0,0,0,0,0,0,0,0,0,0,0,0,-0.1463,-0.1464,-0.1539,-0.154,-0.1541,-0.1589,-0.1589,-0.159,-0.1626,-0.1627,-0.1627,-0.1628,-0.1674,-0.1675,-0.1675,0,0,0,0,0,0,0,0,0,0,0,0,0,-0.15,-0.1464,-0.1539,-0.1566,-0.1569,-0.1589,-0.1589,-0.159,-0.1626,-0.1627,-0.1627,-0.1628,-0.1673,-0.1674,-0.1676,-0.1667,0,0,-0.1679,-0.1679,0,0,0,0,0,0,0,0,-0.1498,-0.1503,-0.1561,-0.1565,-0.1568,-0.1604,-0.1579,-0.1616,-0.1626,-0.1602,-0.1628,-0.1629,-0.1651,-0.1654,-0.1659,-0.1669,-0.1671,-0.1679,-0.168,-0.168,-0.1681,0,0,0,0,0,0,0,-0.1495,-0.1501,-0.1556,-0.1562,-0.1566,-0.1572,-0.1578,-0.1586,-0.162,-0.1604,-0.1608,-0.1616,-0.1653,-0.1657,-0.166,-0.1672,-0.1679,-0.168,-0.1681,-0.1681,-0.1729,-0.173,0,0,0,0,0,0,-0.1494,-0.1498,-0.1555,-0.1558,-0.1537,-0.1573,-0.1579,-0.159,-0.162,-0.1626,-0.1616,-0.1618,-0.1655,-0.1659,-0.1662,-0.172,-0.168,-0.1681,-0.1682,-0.1729,-0.173,-0.173,0,0,0,0,0,0,-0.1492,-0.1498,-0.1553,-0.1531,-0.1539,-0.1573,-0.1585,-0.159,-0.1624,-0.1629,-0.1635,-0.1647,-0.1656,-0.166,-0.1691,-0.1719,-0.1682,-0.1683,-0.1728,-0.1729,-0.173,-0.1793,0,0,0,0,0,0,-0.1489,-0.1497,-0.1517,-0.1531,-0.154,-0.1585,-0.1584,-0.1591,-0.1628,-0.1632,-0.1657,-0.1661,-0.1657,-0.169,-0.1692,-0.172,-0.1684,-0.1727,-0.1729,-0.173,-0.179,-0.1795,-0.18,0,0,0,0,0,-0.1487,-0.1505,-0.1517,-0.1525,-0.1561,-0.1586,-0.1592,-0.1617,-0.1629,-0.1649,-0.1664,-0.1661,-0.1699,-0.1691,-0.1694,-0.1723,-0.1727,-0.1728,-0.1729,-0.1787,-0.1794,-0.18,0,0,0,0,0,0,-0.1483,-0.1511,-0.1525,-0.1552,-0.1578,-0.1594,-0.1618,-0.1633,-0.166,-0.1671,-0.1673,-0.1677,-0.1713,-0.1706,-0.1698,-0.1737,-0.1711,-0.1713,-0.1754,-0.176,-0.1765,-0.175,-0.1685,0,0,0,0,0,-0.149,-0.1514,-0.1539,-0.1565,-0.158,-0.1604,-0.1622,-0.164,-0.1661,-0.1676,-0.1693,-0.1705,-0.1715,-0.173,-0.1736,-0.1762,-0.1732,-0.178,-0.1785,-0.179,-0.1778,-0.1764,-0.1766,-0.1735,-0.1735,-0.1735,0,0,-0.1497,-0.1516,-0.1532,-0.1567,-0.1588,-0.1615,-0.1618,-0.1654,-0.168,-0.1674,-0.1721,-0.1729,-0.1726,-0.1754,-0.1769,-0.1757,-0.1782,-0.1791,-0.1796,-0.1781,-0.1765,-0.1768,-0.1771,-0.1736,-0.1735,-0.1735,0,0,-0.1513,-0.154,-0.1564,-0.1588,-0.1627,-0.1642,-0.1659,-0.1692,-0.1715,-0.1753,-0.1753,-0.1772,-0.1801,-0.1798,-0.1799,-0.1834,-0.181,-0.1848,-0.1868,-0.1856,-0.1858,-0.186,-0.1822,-0.1819,-0.1853,-0.1853,-0.1853,0,-0.1524,-0.1552,-0.1576,-0.1602,-0.1625,-0.1657,-0.1685,-0.171,-0.1752,-0.1766,-0.1778,-0.1808,-0.1814,-0.1828,-0.1844,-0.1847,-0.1829,-0.1849,-0.1863,-0.1864,-0.1865,-0.1825,-0.1822,-0.1856,-0.1855,-0.1855,-0.1855,0,-0.1546,-0.1581,-0.1597,-0.1641,-0.1669,-0.17,-0.1734,-0.177,-0.1802,-0.1818,-0.1854,-0.1859,-0.1871,-0.1883,-0.1878,-0.189,-0.1872,-0.1872,-0.1848,-0.1872,-0.1828,-0.1824,-0.186,-0.1859,-0.1858,-0.1858,0,0,-0.1531,-0.16,-0.1607,-0.1636,-0.1692,-0.1715,-0.1763,-0.1802,-0.183,-0.1869,-0.1892,-0.1915,-0.1918,-0.1917,-0.1917,-0.191,-0.1903,-0.1901,-0.1899,-0.1863,-0.1862,-0.1744,-0.1727,-0.1918,-0.1918,-0.1917,-0.1829,0,-0.1542,-0.1595,-0.1627,-0.1683,-0.1712,-0.1756,-0.1794,-0.1835,-0.187,-0.1901,-0.1907,-0.1932,-0.1932,-0.1945,-0.194,-0.1912,-0.1895,-0.1926,-0.1842,-0.1839,-0.1732,-0.1719,-0.1916,-0.1825,-0.1824,-0.1823,-0.1823,0,-0.1541,-0.158,-0.1635,-0.1703,-0.1721,-0.1762,-0.1823,-0.1861,-0.1905,-0.1929,-0.1951,-0.1958,-0.1955,-0.1955,-0.191,-0.1935,-0.19,-0.1874,-0.187,-0.1729,-0.1711,-0.1796,-0.1814,-0.1814,-0.1815,-0.1816,-0.1816,0,-0.1501,-0.158,-0.1626,-0.165,-0.1733,-0.177,-0.1815,-0.1871,-0.1894,-0.1945,-0.1958,-0.1967,-0.1961,-0.1934,-0.1883,-0.1905,-0.1815,-0.1836,-0.1688,-0.1679,-0.1788,-0.1787,-0.1792,-0.1792,-0.1793,-0.1793,-0.1793,0,-0.1476,-0.1516,-0.1619,-0.1641,-0.1691,-0.1762,-0.1812,-0.1855,-0.1907,-0.1913,-0.1967,-0.1949,-0.1959,-0.1912,-0.1875,-0.1747,-0.1805,-0.1669,-0.1644,-0.1815,-0.1819,-0.1784,-0.1784,-0.1789,-0.179,-0.1791,-0.1791,0,-0.1411,-0.1484,-0.154,-0.1641,-0.1672,-0.1708,-0.1794,-0.1819,-0.1887,-0.1894,-0.1907,-0.1925,-0.186,-0.1837,-0.1772,-0.1708,-0.162,-0.1564,-0.1721,-0.1711,-0.1497,-0.1501,-0.1386,-0.1381,-0.1377,-0.1373,-0.137,0,-0.1378,-0.1405,-0.1517,-0.1546,-0.1594,-0.1664,-0.1698,-0.1789,-0.1804,-0.1849,-0.1825,-0.1801,-0.1792,-0.1581,-0.1595,-0.1495,-0.1482,-0.1432,-0.1484,-0.1465,-0.1453,-0.1465,-0.1475,-0.1364,-0.1363,-0.1361,-0.136,0,-0.1299,-0.1356,-0.1395,-0.1458,-0.1509,-0.1551,-0.1608,-0.1602,-0.1684,-0.1769,-0.1679,-0.1625,-0.1541,-0.1475,-0.1402,-0.1343,-0.1466,-0.1388,-0.1397,-0.1446,-0.1436,-0.1431,-0.1446,-0.1346,-0.1348,-0.1349,-0.135,0,-0.1232,-0.1241,-0.1301,-0.1338,-0.14,-0.1399,-0.1453,-0.1455,-0.1474,-0.1541,-0.1501,-0.1479,-0.1511,-0.1393,-0.1326,-0.1255,-0.1244,-0.1213,-0.1232,-0.1248,-0.1246,-0.1216,-0.1013,0,0,0,0,0,-0.1156,-0.1147,-0.1174,-0.12,-0.1258,-0.1282,-0.1366,-0.1425,-0.151,-0.1403,-0.1448,-0.1365,-0.1262,-0.1254,-0.1146,-0.1265,-0.1253,-0.1137,-0.123,-0.1264,-0.1281,-0.1292,0,0,0,0,0,0,-0.11,-0.1121,-0.1123,-0.1069,-0.1059,-0.1094,-0.1136,-0.1202,-0.1156,-0.125,-0.1192,-0.1272,-0.1184,-0.1278,-0.1107,-0.1107,-0.1136,-0.1145,-0.1141,-0.1254,-0.127,-0.1283,-0.13,0,0,0,0,0]},{"header":{"parameterUnit":"m.s-1","parameterCategory":2,"la1":30.2991,"la2":30.254,"lo1":-89.0895,"lo2":-89.0444,"dy":0.0017,"dx":0.0017,"nx":28,"ny":28,"refTime":"2024-04-01T09:00:00:Z","depth":"4","parameterNumber":3,"parameterNumberName":"V-component_of_CURRENTS"},"data":[0,0,0,0,0,0,0,0,0,0,0,0,0,0,0,0,0,0,0,0,0,0,0,0,0,0,0,0,0,0,0,0,0,0,0,0,0,0,0,0,0,0,0,0,0,0,0,0,0,0,0,0,0,0,0,0,0,0,-0.0337,-0.0337,0,-0.0304,-0.0304,-0.0304,-0.0284,-0.0284,-0.0284,-0.0284,-0.022,-0.0219,-0.0217,0,0,0,0,0,0,0,0,0,0,0,0,0,-0.0355,-0.0355,-0.0337,-0.0337,-0.0336,-0.0305,-0.0304,-0.0304,-0.0284,-0.0284,-0.0284,-0.0284,-0.0221,-0.0219,-0.0217,0,0,0,0,0,0,0,0,0,0,0,0,0,-0.0337,-0.0355,-0.0337,-0.0323,-0.0322,-0.0305,-0.0304,-0.0303,-0.0284,-0.0284,-0.0284,-0.0284,-0.0221,-0.0219,-0.0216,-0.0203,0,0,-0.0209,-0.0208,0,0,0,0,0,0,0,0,-0.0338,-0.0336,-0.0325,-0.0324,-0.0322,-0.0299,-0.0287,-0.0268,-0.0284,-0.0298,-0.0284,-0.0284,-0.0244,-0.024,-0.0233,-0.02,-0.0197,-0.0209,-0.0207,-0.0206,-0.0205,0,0,0,0,0,0,0,-0.0339,-0.0337,-0.0324,-0.0325,-0.0323,-0.0309,-0.0307,-0.0283,-0.0271,-0.0296,-0.0295,-0.0292,-0.0243,-0.0236,-0.0232,-0.0196,-0.0209,-0.0207,-0.0205,-0.0204,-0.0152,-0.0152,0,0,0,0,0,0,-0.0346,-0.0339,-0.0325,-0.0323,-0.0331,-0.0309,-0.0306,-0.0306,-0.0271,-0.0267,-0.0292,-0.0292,-0.024,-0.0234,-0.0229,-0.0211,-0.0206,-0.0204,-0.0202,-0.0152,-0.0152,-0.0152,0,0,0,0,0,0,-0.0346,-0.0345,-0.0326,-0.033,-0.0327,-0.0309,-0.0309,-0.0305,-0.0302,-0.0269,-0.0263,-0.0293,-0.024,-0.0233,-0.0214,-0.0209,-0.0203,-0.02,-0.0152,-0.0152,-0.0152,-0.0175,0,0,0,0,0,0,-0.0347,-0.0345,-0.0351,-0.0331,-0.0327,-0.0323,-0.0309,-0.0305,-0.03,-0.0299,-0.0267,-0.0261,-0.0239,-0.0218,-0.0212,-0.0205,-0.0199,-0.0151,-0.0152,-0.0152,-0.0174,-0.0176,-0.0178,0,0,0,0,0,-0.0348,-0.0357,-0.0352,-0.035,-0.0334,-0.0323,-0.032,-0.0306,-0.0301,-0.0303,-0.0281,-0.0263,-0.0215,-0.0216,-0.0209,-0.0201,-0.0151,-0.0152,-0.0152,-0.0174,-0.0176,-0.0178,0,0,0,0,0,0,-0.0367,-0.0355,-0.0349,-0.0354,-0.0343,-0.032,-0.0323,-0.0311,-0.0296,-0.0296,-0.0263,-0.0256,-0.0238,-0.0219,-0.0222,-0.0188,-0.018,-0.0179,-0.0199,-0.0201,-0.0202,-0.0206,-0.0196,0,0,0,0,0,-0.0374,-0.0379,-0.0361,-0.0366,-0.0363,-0.0344,-0.0339,-0.0329,-0.0311,-0.0305,-0.0283,-0.0258,-0.0232,-0.0217,-0.0197,-0.0177,-0.0148,-0.0168,-0.017,-0.0171,-0.017,-0.0123,-0.012,-0.0153,-0.0153,-0.0153,0,0,-0.0383,-0.0377,-0.038,-0.0371,-0.0362,-0.036,-0.0341,-0.0338,-0.0333,-0.03,-0.029,-0.0265,-0.023,-0.0209,-0.0199,-0.0192,-0.0148,-0.0171,-0.0173,-0.0171,-0.0123,-0.0119,-0.0116,-0.0153,-0.0153,-0.0153,0,0,-0.0402,-0.0399,-0.0408,-0.0403,-0.0393,-0.0378,-0.038,-0.0361,-0.0351,-0.0338,-0.031,-0.0281,-0.0252,-0.0218,-0.0197,-0.0195,-0.0161,-0.0193,-0.0198,-0.0153,-0.015,-0.0146,-0.0108,-0.0102,-0.019,-0.019,-0.019,0,-0.0414,-0.0423,-0.0408,-0.0416,-0.0416,-0.0389,-0.0397,-0.0379,-0.0357,-0.0345,-0.0341,-0.0282,-0.0252,-0.0209,-0.0208,-0.0196,-0.0172,-0.0193,-0.0154,-0.015,-0.0147,-0.0108,-0.01,-0.0191,-0.0191,-0.0191,-0.0191,0,-0.0437,-0.0446,-0.0452,-0.0451,-0.0447,-0.0451,-0.0427,-0.0418,-0.0402,-0.0378,-0.0344,-0.03,-0.0262,-0.0246,-0.0225,-0.0182,-0.0174,-0.0165,-0.0148,-0.0145,-0.0105,-0.0096,-0.0193,-0.0192,-0.0192,-0.0192,0,0,-0.0458,-0.0467,-0.0471,-0.0482,-0.0469,-0.047,-0.0457,-0.0435,-0.0424,-0.0392,-0.0369,-0.0315,-0.0287,-0.0262,-0.0225,-0.0181,-0.013,-0.0166,-0.0163,-0.0127,-0.0035,-0.0045,-0.0036,-0.0116,-0.0115,-0.0114,-0.0019,0,-0.0482,-0.0511,-0.0503,-0.0524,-0.0536,-0.0511,-0.0504,-0.0479,-0.0447,-0.0417,-0.0355,-0.0324,-0.0293,-0.0274,-0.0224,-0.0155,-0.0108,-0.0157,-0.0045,-0.0042,-0.005,-0.0027,-0.0109,-0.0013,-0.0011,-0.0009,-0.0008,0,-0.0506,-0.0523,-0.0556,-0.0567,-0.057,-0.0576,-0.0559,-0.0546,-0.0487,-0.0461,-0.0407,-0.0361,-0.0286,-0.0268,-0.014,-0.0175,-0.0109,-0.0054,-0.0049,-0.0043,-0.0035,-0.0016,0.0008,0.0007,0.0006,0.0005,0.0004,0,-0.0536,-0.0559,-0.0591,-0.0597,-0.0601,-0.061,-0.0604,-0.0562,-0.0549,-0.0484,-0.0463,-0.0373,-0.0324,-0.0231,-0.012,-0.0129,0.0017,0.0022,0.0079,0.0079,0.0069,0.0065,0.0113,0.0113,0.0113,0.0113,0.0112,0,-0.0562,-0.0588,-0.0613,-0.0633,-0.0666,-0.065,-0.0662,-0.0637,-0.0594,-0.0567,-0.0489,-0.0443,-0.0313,-0.0216,-0.0121,0.0006,0.0021,0.0085,0.0107,0.0056,0.0049,0.0075,0.007,0.0116,0.0115,0.0115,0.0114,0,-0.0588,-0.0605,-0.0646,-0.0672,-0.0685,-0.0708,-0.0714,-0.071,-0.0662,-0.0623,-0.0605,-0.0486,-0.0354,-0.0227,-0.0063,0.0004,0.0123,0.0164,0.0099,0.0113,0.0155,0.0147,0.0239,0.024,0.024,0.024,0.0241,0,-0.0603,-0.0629,-0.0688,-0.0721,-0.0739,-0.0767,-0.0784,-0.0753,-0.0736,-0.0642,-0.0619,-0.0491,-0.04,-0.0168,-0.0044,0.0135,0.0156,0.021,0.0186,0.0159,0.017,0.0161,0.0153,0.0242,0.0242,0.0242,0.0242,0,-0.0629,-0.0657,-0.0694,-0.0766,-0.0805,-0.0836,-0.0847,-0.0839,-0.0779,-0.0741,-0.0609,-0.0479,-0.0327,-0.0157,-0.002,0.0105,0.0169,0.0215,0.0215,0.0193,0.0163,0.0172,0.0163,0.0243,0.0243,0.0243,0.0243,0,-0.0648,-0.0685,-0.0742,-0.0797,-0.0854,-0.088,-0.0884,-0.0841,-0.081,-0.0693,-0.0648,-0.0472,-0.0363,-0.0172,-0.0045,0.0076,0.0104,0.0131,0.0136,0.0135,0.007,0.0013,0.0075,0,0,0,0,0,-0.0661,-0.0704,-0.0766,-0.0827,-0.0883,-0.0908,-0.0913,-0.0898,-0.0839,-0.0747,-0.0689,-0.0539,-0.0315,-0.0214,-0.0093,-0.0062,0.0097,0.008,0.0124,0.0252,0.025,0.0189,0,0,0,0,0,0,-0.067,-0.0734,-0.0766,-0.0836,-0.0878,-0.0926,-0.0929,-0.0891,-0.0823,-0.0745,-0.062,-0.0526,-0.0313,-0.0384,-0.0095,-0.0057,-0.0017,0.0193,0.0195,0.0253,0.0252,0.025,0.0186,0,0,0,0,0]}]]